Tracking 35331 objects as of 15-Sep-2026
HD Live streaming from Space Station
objects crossing your sky now

SPACEBEE-96


SPACEBEE-96 is no longer on orbit


NORAD ID: 48934
Int'l Code: 2021-059BH
Launch date: June 30, 2021
Source: United States (US)
Launch site: AIR FORCE EASTERN TEST RANGE (AFETR)
Decay date: 2023-03-20
Your satellite tracking list
Your tracking list is empty




NASA's NSSDC Master Catalog

Two Line Element Set (TLE):
1 48934U 21059BH  23077.78451256  .18799698  26154-5  78703-3 0  9990
2 48934  97.5277 222.2973 0011566 284.2746  75.7269 16.42549820 96244
Source of the keplerian elements: AFSPC